Location: Alvediston
(51.0078°N, 2.0364°W)
Time: 06:13:12
(UTC+00:00)

Okean 1-7 - Pass Details

Date: 27 February 2020
Orbit: 592 x 618 km, 82.5° (Epoch: 28 March)

Event Time Altitude Azimuth Distance (km) Brightness Sun altitude
Rises 18:40:04 0° 352° (N) 2,864 6.6 -9.5°
Reaches altitude 10° 18:42:19 10° 357° (N) 1,960 5.7 -9.8°
Maximum altitude 18:46:36 57° 76° (ENE) 719 3.1 -10.5°
Drops below altitude 10° 18:50:52 10° 156° (SSE) 1,960 5.4 -11.2°
Sets 18:53:07 0° 160° (SSE) 2,864 6.3 -11.5°
